Time,TemperatureF,DewpointF,PressureIn,WindDirection,WindDirectionDegrees,WindSpeedMPH,WindSpeedGustMPH,Humidity,HourlyPrecipIn,Conditions,Clouds,dailyrainin,SoftwareType,DateUTC
2013-07-23 00:11:00,69.0,69.0,29.81,NW,309,0.0,0.0,100,0.00,,,0.03,,2013-07-23 04:11:00,
2013-07-23 00:22:00,69.0,69.0,29.81,NW,309,0.0,0.0,100,0.00,,,0.03,,2013-07-23 04:22:00,
2013-07-23 00:43:00,69.0,69.0,29.80,NW,309,0.0,0.0,100,0.00,,,0.93,,2013-07-23 04:43:00,
2013-07-23 00:53:00,69.0,69.0,29.80,NW,309,0.0,0.0,100,0.00,,,0.93,,2013-07-23 04:53:00,
2013-07-23 01:02:00,69.0,69.0,29.80,NW,309,0.0,0.0,100,0.00,,,0.93,,2013-07-23 05:02:00,
2013-07-23 01:11:00,68.0,68.0,29.80,NW,309,0.0,0.0,100,0.00,,,0.93,,2013-07-23 05:11:00,
2013-07-23 01:33:00,68.0,68.0,29.79,NW,309,0.0,0.0,100,0.00,,,0.93,,2013-07-23 05:33:00,
2013-07-23 01:44:00,68.0,68.0,29.79,NW,309,0.0,0.0,100,0.00,,,0.93,,2013-07-23 05:44:00,
2013-07-23 01:52:00,68.0,68.0,29.79,NW,309,0.0,0.0,100,0.00,,,0.93,,2013-07-23 05:52:00,
2013-07-23 02:01:00,68.0,68.0,29.79,NW,309,0.0,0.0,100,0.00,,,0.93,,2013-07-23 06:01:00,
2013-07-23 02:22:00,68.0,68.0,29.79,NW,309,0.0,0.0,100,0.00,,,0.93,,2013-07-23 06:22:00,
2013-07-23 02:33:00,69.0,69.0,29.79,NW,309,0.0,0.0,100,0.00,,,0.93,,2013-07-23 06:33:00,
2013-07-23 02:42:00,69.0,69.0,29.79,NW,309,0.0,0.0,100,0.00,,,0.93,,2013-07-23 06:42:00,
2013-07-23 03:02:00,69.0,69.0,29.79,NW,309,0.0,0.0,100,0.00,,,0.93,,2013-07-23 07:02:00,
2013-07-23 03:12:00,69.0,69.0,29.79,NW,309,0.0,0.0,100,0.00,,,0.93,,2013-07-23 07:12:00,
2013-07-23 03:33:00,69.0,69.0,29.78,NW,309,0.0,0.0,100,0.00,,,0.93,,2013-07-23 07:33:00,
2013-07-23 03:42:00,69.0,69.0,29.78,NW,309,0.0,0.0,100,0.00,,,0.93,,2013-07-23 07:42:00,
2013-07-23 04:43:00,68.0,68.0,29.77,NW,309,0.0,0.0,100,0.00,,,0.93,,2013-07-23 08:43:00,
2013-07-23 04:52:00,68.0,68.0,29.77,NW,309,0.0,0.0,100,0.00,,,0.93,,2013-07-23 08:52:00,
2013-07-23 05:01:00,68.0,68.0,29.77,NW,309,0.0,0.0,100,0.00,,,0.93,,2013-07-23 09:01:00,
2013-07-23 05:11:00,68.0,68.0,29.77,NW,309,0.0,0.0,100,0.00,,,0.93,,2013-07-23 09:11:00,
2013-07-23 05:53:00,68.0,68.0,29.77,NW,309,0.0,0.0,100,0.00,,,0.93,,2013-07-23 09:53:00,
2013-07-23 06:02:00,68.0,68.0,29.77,NW,309,0.0,0.0,100,0.00,,,0.93,,2013-07-23 10:02:00,
2013-07-23 06:44:00,68.0,68.0,29.78,NW,309,0.0,0.0,100,0.01,,,0.93,,2013-07-23 10:44:00,
2013-07-23 07:02:00,68.0,68.0,29.79,South,177,0.0,0.0,100,0.01,,,0.93,,2013-07-23 11:02:00,
2013-07-23 07:12:00,68.0,68.0,29.79,South,177,0.0,0.0,100,0.01,,,0.93,,2013-07-23 11:12:00,
2013-07-23 07:43:00,68.0,68.0,29.79,South,177,0.0,0.0,100,0.00,,,0.93,,2013-07-23 11:43:00,
2013-07-23 08:02:00,67.0,67.0,29.80,South,177,0.0,0.0,100,0.00,,,0.93,,2013-07-23 12:02:00,
2013-07-23 08:11:00,67.0,67.0,29.80,South,177,0.0,0.0,100,0.00,,,0.93,,2013-07-23 12:11:00,
2013-07-23 08:33:00,67.0,67.0,29.81,WSW,257,0.0,0.0,100,0.00,,,0.93,,2013-07-23 12:33:00,
2013-07-23 08:43:00,67.0,67.0,29.81,WSW,257,0.0,0.0,100,0.00,,,0.93,,2013-07-23 12:43:00,
2013-07-23 09:11:00,68.0,68.0,29.81,WNW,298,0.0,0.0,100,0.00,,,0.93,,2013-07-23 13:11:00,
2013-07-23 09:32:00,68.0,68.0,29.82,West,277,0.0,0.0,100,0.00,,,0.93,,2013-07-23 13:32:00,
2013-07-23 09:43:00,68.0,68.0,29.82,West,277,0.0,0.0,100,0.00,,,0.93,,2013-07-23 13:43:00,
2013-07-23 09:52:00,68.0,68.0,29.82,West,277,0.0,0.0,100,0.00,,,0.93,,2013-07-23 13:52:00,
2013-07-23 10:02:00,69.0,69.0,29.81,West,277,0.0,0.0,100,0.00,,,0.93,,2013-07-23 14:02:00,
2013-07-23 10:44:00,71.0,71.0,29.80,West,277,0.0,0.0,100,0.00,,,0.93,,2013-07-23 14:44:00,
2013-07-23 10:53:00,71.0,70.0,29.80,West,277,0.0,0.0,98,0.00,,,0.93,,2013-07-23 14:53:00,
2013-07-23 11:03:00,72.0,70.0,29.80,West,277,0.0,0.0,92,0.00,,,0.93,,2013-07-23 15:03:00,
2013-07-23 11:32:00,72.0,68.0,29.80,West,280,0.0,0.0,87,0.00,,,0.93,,2013-07-23 15:32:00,
2013-07-23 11:43:00,73.0,68.0,29.80,West,280,0.0,0.0,85,0.00,,,0.93,,2013-07-23 15:43:00,
2013-07-23 11:52:00,73.0,68.0,29.81,NNW,335,0.0,0.0,84,0.00,,,0.93,,2013-07-23 15:52:00,
2013-07-23 12:12:00,74.0,68.0,29.80,WNW,297,1.0,4.0,81,0.00,,,0.93,,2013-07-23 16:12:00,
2013-07-23 12:43:00,76.0,69.0,29.80,WNW,300,0.0,0.0,78,0.00,,,0.93,,2013-07-23 16:43:00,
2013-07-23 13:22:00,77.0,69.0,29.80,South,186,1.0,0.0,77,0.00,,,0.93,,2013-07-23 17:22:00,
2013-07-23 13:32:00,77.0,69.0,29.80,South,186,1.0,0.0,77,0.00,,,0.93,,2013-07-23 17:32:00,
2013-07-23 13:42:00,78.0,69.0,29.80,SSW,211,1.0,0.0,73,0.00,,,0.93,,2013-07-23 17:42:00,
2013-07-23 14:04:00,79.0,68.0,29.80,SSE,166,0.0,0.0,68,0.00,,,0.93,,2013-07-23 18:04:00,
2013-07-23 14:13:00,79.0,68.0,29.80,SSE,166,0.0,0.0,68,0.00,,,0.93,,2013-07-23 18:13:00,
2013-07-23 14:25:00,79.0,68.0,29.80,SSE,166,0.0,0.0,68,0.00,,,0.93,,2013-07-23 18:25:00,
2013-07-23 14:49:00,80.0,68.0,29.78,NW,307,0.0,0.0,66,0.00,,,0.93,,2013-07-23 18:49:00,
2013-07-23 15:03:00,80.0,68.0,29.77,NNE,14,0.0,3.0,67,0.00,,,0.93,,2013-07-23 19:03:00,
2013-07-23 15:15:00,80.0,68.0,29.77,NNE,14,0.0,3.0,67,0.00,,,0.93,,2013-07-23 19:15:00,
2013-07-23 15:46:00,81.0,68.0,29.77,SSW,210,0.0,3.0,64,0.00,,,0.93,,2013-07-23 19:46:00,
2013-07-23 15:54:00,83.0,70.0,29.76,SE,129,0.0,0.0,65,0.00,,,0.93,,2013-07-23 19:54:00,
2013-07-23 16:56:00,83.0,67.0,29.74,West,271,0.0,3.0,59,0.00,,,0.93,,2013-07-23 20:56:00,
2013-07-23 17:47:00,81.0,67.0,29.75,ENE,72,1.0,3.0,63,0.00,,,0.93,,2013-07-23 21:47:00,
2013-07-23 18:06:00,80.0,68.0,29.75,ESE,111,0.0,0.0,66,0.00,,,0.93,,2013-07-23 22:06:00,
2013-07-23 18:57:00,78.0,67.0,29.74,WNW,291,0.0,0.0,70,0.00,,,0.93,,2013-07-23 22:57:00,
2013-07-23 19:57:00,76.0,67.0,29.77,West,280,7.0,7.0,73,0.00,,,0.93,,2013-07-23 23:57:00,
2013-07-23 20:10:00,74.0,64.0,29.78,WNW,293,6.0,6.0,71,0.00,,,0.93,,2013-07-24 00:10:00,
2013-07-23 20:26:00,72.0,63.0,29.77,NE,55,4.0,5.0,74,0.00,,,0.93,,2013-07-24 00:26:00,
2013-07-23 20:34:00,71.0,64.0,29.77,ENE,68,2.0,9.0,79,0.00,,,0.93,,2013-07-24 00:34:00,
2013-07-23 20:49:00,71.0,64.0,29.77,ENE,68,2.0,9.0,79,0.00,,,0.93,,2013-07-24 00:49:00,
2013-07-23 20:55:00,67.0,66.0,29.79,SE,138,0.0,0.0,96,0.00,,,0.93,,2013-07-24 00:55:00,
2013-07-23 21:04:00,66.0,66.0,29.80,WSW,238,0.0,0.0,99,0.00,,,0.93,,2013-07-24 01:04:00,
2013-07-23 21:24:00,66.0,66.0,29.80,WSW,238,0.0,0.0,99,0.00,,,0.93,,2013-07-24 01:24:00,
2013-07-23 21:44:00,66.0,66.0,29.79,WSW,238,0.0,0.0,100,0.88,,,0.93,,2013-07-24 01:44:00,
2013-07-23 22:05:00,66.0,66.0,29.79,WSW,238,0.0,0.0,100,0.88,,,0.93,,2013-07-24 02:05:00,
2013-07-23 22:48:00,65.0,65.0,29.76,West,266,0.0,0.0,100,0.07,,,0.93,,2013-07-24 02:48:00,
2013-07-23 23:24:00,64.0,64.0,29.77,West,266,0.0,0.0,100,0.07,,,0.93,,2013-07-24 03:24:00,
2013-07-23 23:46:00,64.0,64.0,29.77,West,266,0.0,0.0,100,0.00,,,0.93,,2013-07-24 03:46:00,